Terug naar catalogus

COSMOS 839 DEB

ActiefUNKNOWN
NORAD 10440·DEBRIS·🇷🇺 Russia

Gelanceerd Jul 8, 1976 vanaf Plesetsk Cosmodrome

Loading…

Volgende Passages (komende 24 uur)

TLE

VersSource: Space-Track

Epoch: Sep 13, 2026, 02:05 UTC

1 10440U 76067R   26256.08682259  .00000378  00000-0  13352-2 0  9990
2 10440  65.6505 136.5244 0710547  45.3475  96.2344 12.40600175268993

Volg COSMOS 839 DEB in realtime met AllMySat

Download on the App Store